Weather Roundup
Issued by NWS

Home | Current Version | Previous Version | Text Only | Print | Product List | Glossary On
Versions: 1 2 3 4 5 6 7 8 9 10 11 12 13 14 15 16 17 18 19 20 21 22 23 24 25 26 27 28 29 30 31 32 33 34 35 36 37 38 39 40 41 42 43 44 45 46 47 48 49 50
802
NZUS93 KARX 250259
HRRWXR

CURRENT HOURLY OBSERVATIONS ACROSS
MUCH OF THE UPPER MISSISSIPPI VALLEY
NATIONAL WEATHER SERVICE LA CROSSE WI
1000 PM CDT TUE MAY 24 2016


...SOUTHEAST MINNESOTA...


CITY           SKY/WX    TMP DP  RH WIND       PRES   REMARKS
ROCHESTER      CLEAR     68  57  68 SE7       29.94R
ROCHESTER/MAYO FAIR      73  57  57 NE3       29.94R
WINONA         CLEAR     70  61  73 E5        29.92S
AUSTIN         CLEAR     64  61  88 CALM      29.92S
ALBERT LEA     CLEAR     70  57  64 SE3       29.92R
DODGE CENTER   CLEAR     66  54  63 SE5       29.94R
PRESTON        CLEAR     72  58  60 E5        29.94S
OWATONNA       CLEAR     70  55  60 E6        29.92R
FARIBAULT      CLEAR     70  55  60 N2        29.92R
$$

...ELSEWHERE IN MINNESOTA...


CITY           SKY/WX    TMP DP  RH WIND       PRES   REMARKS
MINNEAPOLIS    CLOUDY    77  51  40 SE8       29.90R
INTNL FALLS    CLEAR     59  52  77 E7        29.97R
DULUTH         CLOUDY    55  53  93 E10       29.98R FOG
RED WING       PTCLDY    64  57  77 CALM      29.91R
REDWOOD FALLS  CLEAR     72  50  45 E9        29.86R
MANKATO        CLEAR     73  54  49 E8        29.90S
WORTHINGTON    CLEAR     71  59  65 SE9       29.89R
FAIRMONT       CLEAR     73  52  46 SE12      29.89S
$$

...SOUTHWEST WISCONSIN...


CITY           SKY/WX    TMP DP  RH WIND       PRES   REMARKS
LA CROSSE      CLEAR     70  60  70 E3        29.92R
PRAIRIE DU CHI CLEAR     71  60  68 CALM      29.92R
BOSCOBEL       CLEAR     66  62  87 CALM      29.93R
LONE ROCK      NOT AVBL
PLATTEVILLE    CLEAR     74  60  63 E3        29.95R
FORT MC COY    CLEAR     64  58  79 CALM      29.95R
MAUSTON-NEW LI CLEAR     65  60  83 CALM      29.94R
VIROQUA        FAIR      70  56  60 SE3       29.95S
WIS DELLS      CLEAR     66  57  72 S3        29.95R
$$

...ELSEWHERE IN WISCONSIN...


CITY           SKY/WX    TMP DP  RH WIND       PRES   REMARKS
MILWAUKEE      CLOUDY    63  53  70 SE5       29.96R
MADISON        PTCLDY    69  60  73 CALM      29.95R
GREEN BAY      CLEAR     66  58  75 N3        29.94R
EAU CLAIRE     NOT AVBL
BLACK RVR FLS  FAIR      64  56  74 CALM      29.93R
MEDFORD        CLEAR     61  61  98 CALM      29.96R
WAUSAU         CLEAR     68  57  68 CALM      29.94R
WIS RAPIDS     CLEAR     66  57  72 CALM      29.96R
MARSHFIELD     CLEAR     69  56  62 CALM      29.95R
RICE LAKE      CLOUDY    66  58  73 CALM      29.95R
$$

...NORTHEAST IOWA...


CITY           SKY/WX    TMP DP  RH WIND       PRES   REMARKS
WATERLOO       CLEAR     70  61  73 CALM      29.90R
DUBUQUE        CLOUDY    70  61  73 CALM      29.95R
DECORAH        CLEAR     73  61  64 SE7       29.92S
MASON CITY     CLEAR     68  63  84 CALM      29.92S
CHARLES CITY   CLEAR     73  59  60 E5        29.92S
OELWEIN        CLEAR     75  61  60 E5        29.93R
$$

...ELSEWHERE IN IOWA...


CITY           SKY/WX    TMP DP  RH WIND       PRES   REMARKS
DES MOINES     PTCLDY    74  61  63 SE8       29.90R
IOWA CITY      CLEAR     76  65  68 S7        29.94R
FORT DODGE     CLEAR     70  61  73 CALM      29.91R
MARSHALLTOWN   CLEAR     72  61  68 CALM      29.89S
CEDAR RAPIDS   CLEAR     72  65  78 S7        29.92R
$$

...NORTHERN ILLINOIS...


CITY           SKY/WX    TMP DP  RH WIND       PRES   REMARKS
CHICAGO-OHARE  CLOUDY    77  54  44 S10       29.96R
CHICAGO-MIDWAY MOCLDY    80  54  40 S12       29.97R
MOLINE         CLOUDY    77  61  57 S8        29.93R
ROCKFORD       MOCLDY    74  57  55 S6        29.96R
PEORIA         CLOUDY    75  62  64 S5        29.97R
$$

NOTE: "FAIR" INDICATES FEW OR NO CLOUDS BELOW 12,000 FEET WITH NO
SIGNIFICANT WEATHER AND/OR OBSTRUCTIONS TO VISIBILITY. WIND
SPEEDS ARE IN MILES-PER-HOUR.




USA.gov is the U.S. government's official web portal to all federal, state and local government web resources and services.